"Pseudo-MPEC" for P11TKwj

Created 2024 May 16 17:22:07 UT using Find_Orb

Click here for an explanation of pseudo-MPECs

 
 Astrometry: 
     P11TKwj* C2024 04 26Y)#9bxAstrometry.!eredacted;@AjclickI+i[tTjr1.au)UvLF51
     P11TKwj  C2024 04 265Y)Nv\6wG0?lY$[__0nUTfrftYaWh7)#Jf+HvRJ,KfOQKha?C_o\F51
     P11TKwj  C2024 04 26Y(w6qhsN8:Zm0Efp\(E4.gu'0kg'.$herekYl._XBRuRQanGxQF2F51
     P11TKwj  C2024 04 2693a@wSaW4b@for9-y+KaD*)vY5M@*Nr5N*Nalexplanationn9y0F51

Station data:
(F51) Pan-STARRS 1, Haleakala  (N20.707234 W156.255910)  US/Hawaii.
   Observers J. Bulger, T. Lowe, A. Schultz, M. Willman. Measurers K.
   Chambers, S. Chastel, T. de Boer, L. Denneau, J. Fairlamb, H. Flewelling,
   M. Huber, C.-C. Lin, E. Magnier, Y. Ramanjooloo, R. Wainscoat, R. Weryk.
   1.8-m Ritchey-Chrétien + CCD.

Orbital elements:  P11TKwj
   Perihelion 2029 Feb 19.49357 +/- 19856 TT = 11:50:44 (JD 2462186.99357)
Epoch 2024 Apr 26.0 TT = JDT 2460426.5                           AutoNEOCP
M 359.65120162 +/- 58               (J2000 ecliptic)
n   0.00019812 +/-                  Peri.   37.32739 +/- 90
a 291.413304 +/-                    Node   130.79857 +/- 13
e   0.9005033 +/- 0.244             Incl.   69.17841 +/- 26
P4974.67                   H  5.67  G  0.15   U 10.2  SR
q 28.9946384 +/- 14.3    Q 553.831971 +/- 1083
From 4 observations 2024 Apr. 26 (45.1 min); mean residual 0".08
Residuals in arcseconds: 
240426 F51  .04-  .05+    240426 F51  .16+  .02-    
240426 F51  .02+  .04-    240426 F51  .12-  .06+    

Ephemerides (geocentric):
Date (UTC) HH   RA             Dec           delta  r     elong  mag " sig PA
---- --------  ------------   ------------  ------ ------ -----  --- --------
2024 05 16 17  09 48 05.010   +35 19 29.76  29.599 29.469  81.6 20.6 1703  72
2024 05 16 18  09 48 05.083   +35 19 28.82  29.600 29.469  81.6 20.6 1709  72
2024 05 16 19  09 48 05.156   +35 19 27.88  29.600 29.469  81.6 20.6 1715  72
2024 05 16 20  09 48 05.229   +35 19 26.93  29.601 29.469  81.5 20.6 1721  72
2024 05 16 21  09 48 05.303   +35 19 25.99  29.602 29.469  81.5 20.6 1727  72
2024 05 16 22  09 48 05.377   +35 19 25.05  29.602 29.469  81.5 20.6 1733  72
2024 05 16 23  09 48 05.451   +35 19 24.10  29.603 29.469  81.4 20.6 1739  72
2024 05 17 00  09 48 05.525   +35 19 23.16  29.604 29.469  81.4 20.6 1744  72
2024 05 17 01  09 48 05.600   +35 19 22.21  29.604 29.469  81.3 20.6 1750  72
2024 05 17 02  09 48 05.675   +35 19 21.26  29.605 29.469  81.3 20.6 1756  72
2024 05 17 03  09 48 05.750   +35 19 20.31  29.605 29.469  81.3 20.6 1762  72
2024 05 17 04  09 48 05.826   +35 19 19.36  29.606 29.469  81.2 20.6 1768  72
2024 05 17 05  09 48 05.902   +35 19 18.41  29.607 29.469  81.2 20.6 1774  72
2024 05 17 06  09 48 05.978   +35 19 17.46  29.607 29.469  81.2 20.6 1780  72
2024 05 17 07  09 48 06.054   +35 19 16.50  29.608 29.469  81.1 20.6 1786  72
2024 05 17 08  09 48 06.131   +35 19 15.55  29.609 29.469  81.1 20.6 1792  72
2024 05 17 09  09 48 06.207   +35 19 14.59  29.609 29.469  81.0 20.6 1798  72
2024 05 17 10  09 48 06.285   +35 19 13.64  29.610 29.469  81.0 20.6 1804  72
2024 05 17 11  09 48 06.362   +35 19 12.68  29.610 29.469  81.0 20.6 1810  72
2024 05 17 12  09 48 06.440   +35 19 11.72  29.611 29.469  80.9 20.6 1816  72
2024 05 17 13  09 48 06.517   +35 19 10.76  29.612 29.469  80.9 20.6 1822  72
2024 05 17 14  09 48 06.596   +35 19 09.80  29.612 29.469  80.9 20.6 1828  72
2024 05 17 15  09 48 06.674   +35 19 08.84  29.613 29.469  80.8 20.6 1834  72
2024 05 17 16  09 48 06.753   +35 19 07.88  29.614 29.469  80.8 20.6 1840  72
2024 05 17 17  09 48 06.832   +35 19 06.92  29.614 29.469  80.8 20.6 1846  72
2024 05 17 18  09 48 06.911   +35 19 05.95  29.615 29.469  80.7 20.6 1852  72
2024 05 17 19  09 48 06.990   +35 19 04.99  29.615 29.469  80.7 20.6 1858  72
2024 05 17 20  09 48 07.070   +35 19 04.02  29.616 29.468  80.6 20.6 1864  72
2024 05 17 21  09 48 07.150   +35 19 03.05  29.617 29.468  80.6 20.6 1870  72
2024 05 17 22  09 48 07.231   +35 19 02.09  29.617 29.468  80.6 20.6 1876  72
2024 05 17 23  09 48 07.311   +35 19 01.12  29.618 29.468  80.5 20.6 1883  72
2024 05 18 00  09 48 07.392   +35 19 00.15  29.619 29.468  80.5 20.6 1889  72
2024 05 18 01  09 48 07.473   +35 18 59.17  29.619 29.468  80.5 20.6 1895  72
2024 05 18 02  09 48 07.554   +35 18 58.20  29.620 29.468  80.4 20.6 1901  72
2024 05 18 03  09 48 07.636   +35 18 57.23  29.621 29.468  80.4 20.6 1907  72
2024 05 18 04  09 48 07.718   +35 18 56.26  29.621 29.468  80.3 20.6 1913  72
2024 05 18 05  09 48 07.800   +35 18 55.28  29.622 29.468  80.3 20.6 1919  72
2024 05 18 06  09 48 07.882   +35 18 54.30  29.622 29.468  80.3 20.6 1925  72
2024 05 18 07  09 48 07.965   +35 18 53.33  29.623 29.468  80.2 20.6 1932  72
2024 05 18 08  09 48 08.048   +35 18 52.35  29.624 29.468  80.2 20.6 1938  72
2024 05 18 09  09 48 08.131   +35 18 51.37  29.624 29.468  80.2 20.6 1944  72
2024 05 18 10  09 48 08.215   +35 18 50.39  29.625 29.468  80.1 20.6 1950  72
2024 05 18 11  09 48 08.298   +35 18 49.41  29.626 29.468  80.1 20.6 1956  72
2024 05 18 12  09 48 08.382   +35 18 48.43  29.626 29.468  80.0 20.6 1962  72
2024 05 18 13  09 48 08.467   +35 18 47.45  29.627 29.468  80.0 20.6 1969  72
2024 05 18 14  09 48 08.551   +35 18 46.46  29.627 29.468  80.0 20.6 1975  72
2024 05 18 15  09 48 08.636   +35 18 45.48  29.628 29.468  79.9 20.6 1981  72
2024 05 18 16  09 48 08.721   +35 18 44.49  29.629 29.468  79.9 20.6 1987  72